Location: Ahstedt
(52.2048°N, 10.1060°E)
Time: 22:50:40
(UTC+00:00)

Cosmos 1805 Rocket - Pass Details

Date: 18 January 2026
Orbit: 599 x 623 km, 82.5° (Epoch: 7 February)

Event Time Altitude Azimuth Distance (km) Brightness Sun altitude
Rises 05:11:06 0° 205° (SSW) 2,893 6.8 -18.9°
Reaches altitude 10° 05:13:24 10° 211° (SSW) 1,990 5.9 -18.6°
Maximum altitude 05:17:40 47° 286° (WNW) 826 3.7 -17.9°
Drops below altitude 10° 05:21:56 10° 1° (N) 1,995 6.1 -17.3°
Sets 05:24:15 0° 7° (N) 2,901 7.0 -16.9°
